Location: Newark
(48.1500°N, 2.9667°W)
Time: 06:17:42
(UTC+00:00)

Altair - Pass Details

Date: 31 January 2020
Orbit: 1502 x 1682 km, 47.2° (Epoch: 17 February)

Event Time Altitude Azimuth Distance (km) Brightness Sun altitude
Rises 07:17:38 0° 228° (SW) 4,832 9.8 -4.6°
Reaches altitude 10° 07:20:47 10° 224° (SW) 3,869 9.4 -4.1°
Maximum altitude 07:30:24 57° 149° (SSE) 1,919 8.5 -2.6°
Drops below altitude 10° 07:40:13 10° 75° (ENE) 3,949 10.5 -1.1°
Sets 07:43:28 0° 72° (ENE) 4,938 10.9 -0.6°
